Location: Taipo
(41.0000°S, 175.9500°E)
Time: 10:30:07
(UTC+00:00)

Cosmos 1371 Rocket - Pass Details

Date: 18 April 2024
Orbit: 751 x 787 km, 74.0° (Epoch: 24 May)

Event Time Altitude Azimuth Distance (km) Brightness Sun altitude
Rises 17:39:39 0° 330° (NNW) 3,274 7.0 -14.0°
Reaches altitude 10° 17:42:05 10° 325° (NW) 2,354 6.2 -13.6°
Maximum altitude 17:47:20 55° 247° (WSW) 955 4.2 -12.6°
Drops below altitude 10° 17:52:40 10° 169° (S) 2,379 6.6 -11.6°
Sets 17:55:08 0° 164° (SSE) 3,312 7.4 -11.1°
